Location: München
(48.1351°N, 11.5820°E)
Time: 22:34:57
(UTC+01:00)

ISS - Pass Details

Date: 30 January 2020
Orbit: 415 x 423 km, 51.6° (Epoch: 25 February)

Event Time Altitude Azimuth Distance (km) Brightness Sun altitude
Rises 20:03:05 0° 291° (WNW) 2,380 1.2 -29.0°
Reaches altitude 10° 20:05:11 10° 293° (WNW) 1,512 -0.1 -29.3°
Enters shadow 20:05:57 16° 295° (WNW) 1,204 -0.7 -29.5°
